Location: Cerroniocc
(13.7547°S, 72.0222°W)
Time: 19:43:31
(UTC+00:00)

ASTEX 1 - Pass Details

Date: 05 July 2020
Orbit: 719 x 745 km, 92.7° (Epoch: 11 August)

Event Time Altitude Azimuth Distance (km) Brightness Sun altitude
Rises 23:03:42 0° 168° (SSE) 3,172 6.4 -7.7°
Reaches altitude 10° 23:06:02 10° 164° (SSE) 2,249 5.6 -8.2°
Maximum altitude 23:10:57 61° 84° (E) 839 3.5 -9.3°
Drops below altitude 10° 23:15:51 10° 4° (N) 2,243 6.1 -10.4°
Sets 23:18:10 0° 1° (N) 3,163 7.0 -11.0°
